Monte Terminillo, Italy

3:42 AM CEST on June 24, 2017 (GMT +0200)
Monte Terminillo

Weather History for LIRK - May, 2013

Change the Weather History Date:

Thursday, May 9, 2013

  Actual Average Record
Temperature  
Mean Temperature 46 °F -  
Max Temperature 51 °F 49 °F 66 °F (2003)
Min Temperature 41 °F 40 °F 26 °F (1997)
Degree Days  
Heating Degree Days 19    
Moisture  
Dew Point 43 °F    
Average Humidity 87    
Maximum Humidity 100    
Minimum Humidity 61    
Precipitation  
Precipitation 0.00 in 0.10 in - ()
Sea Level Pressure  
Sea Level Pressure 30.11 in    
Wind  
Wind Speed 9 mph ()    
Max Wind Speed 17 mph    
Max Gust Speed -    
Visibility 12.2 miles    
Events      
Averages and records for this station are not official NWS values.
T = Trace of Precipitation, MM = Missing Value Source: Averaged Metar Reports

Daily Weather History Graph

Daily Weather History Graph

Search for Another Location

Airport or City:

Trip Planner

Search our weather history database for the weather conditions in past years. The results will help you decide how hot, cold, wet, or windy it might be!

Date:

Astronomy

May. 09, 2013 Rise Set
Actual Time 5:52 AM CEST 8:16 PM CEST
Civil Twilight 5:21 AM CEST 8:48 PM CEST
Nautical Twilight 4:42 AM CEST 9:27 PM CEST
Astronomical Twilight 3:58 AM CEST 10:11 PM CEST
Moon 5:27 AM CEST (5/9) 7:55 PM CEST (5/9)
Length of Visible Light 15h 27m
Length of Day
14h 23m
Waning Crescent, 0% of the Moon is Illuminated
May 9
Waning Crescent
May 10
New
May 18
First Quarter
May 25
Full
May 31
Last Quarter

Hourly Weather History & Observations

Time (CEST) Temp. Dew Point Humidity Pressure Visibility Wind Dir Wind Speed Gust Speed Precip Events Conditions
12:55 AM 41.0 °F 41.0 °F 100% 30.09 in - North - - N/A   Scattered Clouds
1:55 AM 41.0 °F 41.0 °F 100% 30.09 in - North - - N/A   Scattered Clouds
2:00 AM 41 °F 40 °F 96%  in 9 mi NE 13.8 mph - -  
2:55 AM 41.0 °F 41.0 °F 100% 30.09 in - North - - N/A   Scattered Clouds
3:55 AM 41.0 °F 39.2 °F 93% 30.09 in - North - - N/A   Scattered Clouds
7:55 AM 41.0 °F 32.0 °F 70% 30.04 in - North - - N/A   Clear
8:00 AM 41 °F 32 °F 61%  in 12 mi East 17.3 mph - -  
8:55 AM 42.8 °F 33.8 °F 70% 30.04 in - North - - N/A   Partly Cloudy
9:55 AM 42.8 °F 33.8 °F 70% 30.06 in - North - - N/A   Clear
11:55 AM 46.4 °F 39.2 °F 76% 30.09 in - North - - N/A   Clear
12:55 PM 48.2 °F 41.0 °F 76% 30.12 in - North - - N/A   Clear
1:55 PM 50.0 °F 42.8 °F 76% 30.12 in - North - - N/A   Clear
2:00 PM 50 °F 43 °F 70%  in 16 mi ENE 11.5 mph - -  
2:55 PM 51.8 °F 48.2 °F 88% 30.15 in - North - - N/A   Partly Cloudy
3:55 PM 51.8 °F 48.2 °F 88% 30.15 in - North - - N/A   Scattered Clouds
4:55 PM 51.8 °F 48.2 °F 88% 30.12 in - North - - N/A   Scattered Clouds
6:55 PM 51.8 °F 50.0 °F 94% 30.12 in - North - - N/A   Partly Cloudy
7:55 PM 50.0 °F 48.2 °F 94% 30.12 in - North - - N/A   Scattered Clouds
8:00 PM 50 °F 49 °F 95%  in 12 mi West 6.9 mph - -  
8:55 PM 50.0 °F 50.0 °F 100% 30.12 in - North - - N/A   Partly Cloudy
9:55 PM 48.2 °F 48.2 °F 100% 30.12 in - North - - N/A   Clear
10:55 PM 48.2 °F 48.2 °F 100% 30.15 in - North - - N/A   Clear
11:55 PM 48.2 °F 46.4 °F 93% 30.15 in - North - - N/A   Clear